Location: M.A.R.S.Observatory
(35.4031°N, 81.5481°W)
Time: 23:11:41
(UTC-05:00)

SL-8 R/B - Visible Passes

Search period start: 27 January 2015 00:00
Search period end: 06 February 2015 00:00
Orbit: 659 x 669 km, 48.4° (Epoch: 27 January)

Date Brightness Start Highest point End Pass type
(mag) Time Alt. Az. Time Alt. Az. Time Alt. Az.
30 Jan 6.7 06:48:53 10° SSE 06:51:21 14° SE 06:54:02 10° E visible
01 Feb 6.5 06:09:03 10° SSE 06:11:52 16° SE 06:14:52 10° E visible
02 Feb 5.0 06:38:38 10° SSW 06:43:07 43° SE 06:47:39 10° ENE visible
03 Feb 6.3 05:29:17 10° S 05:32:23 18° SE 05:35:38 10° E visible
04 Feb 4.6 05:59:06 10° SSW 06:03:40 47° SE 06:08:15 10° ENE visible
05 Feb 5.9 04:51:38 18° SSE 04:52:54 20° SE 04:56:22 10° E visible
05 Feb 3.7 06:30:23 10° WSW 06:35:08 71° NW 06:39:54 10° NE visible
